Regional Weather Roundup
Issued by NWS

Home | Current Version | Previous Version | Graphics & Text | Print | Product List | Glossary On
Versions: 1 2 3 4 5 6 7 8 9 10 11 12 13 14 15 16 17 18 19 20 21 22 23 24 25 26 27 28 29 30 31 32 33 34 35 36 37 38 39 40 41 42 43 44 45 46 47 48 49 50
000
ASUS43 KOAX 020202
RWRNE

WEATHER ROUNDUP FOR NEBRASKA
NATIONAL WEATHER SERVICE OMAHA NE
900 PM CDT SAT AUG 01 2015

NOTES: SATELLITE DATA IS BEING USED TO AUGMENT CLOUD COVER ABOVE
       12000 FEET.
       "FAIR" INDICATES FEW OR NO CLOUDS BELOW 12,000 FEET WITH NO
       SIGNIFICANT WEATHER AND/OR OBSTRUCTIONS TO VISIBILITY.

  * THESE STATIONS DO NOT REPORT WEATHER SUCH AS RAIN...SNOW OR FOG.

NEZ001>004-019>022-054>056-020300-
NEBRASKA PANHANDLE

CITY           SKY/WX    TMP DP  RH WIND       PRES   REMARKS
SCOTTSBLUFF    CLEAR     76  56  49 SE13      30.00R
ALLIANCE       CLEAR     73  62  68 S12       29.99R
CHADRON        CLEAR     81  58  45 SE7       29.92R
KIMBALL        CLEAR     71  56  59 SE16      30.07R
SIDNEY         MOCLDY    73  56  54 SE22G29   30.05S
$$

NEZ057>060-069>072-079>082-020300-
SOUTHWEST NEBRASKA

CITY           SKY/WX    TMP DP  RH WIND       PRES   REMARKS
NORTH PLATTE   CLOUDY    74  64  71 E3        29.96R
IMPERIAL       MOCLDY    81  54  39 N17       30.05R
LEXINGTON      MOCLDY    77  65  65 S6        29.96R
MCCOOK         PTCLDY    82  56  40 S9        29.96R
OGALLALA       CLOUDY    73  62  68 S14       30.00S
$$

NEZ005>010-023>029-035>040-094-020300-
NORTH CENTRAL NEBRASKA

CITY           SKY/WX    TMP DP  RH WIND       PRES   REMARKS
VALENTINE      MOCLDY    73  61  65 SW8       29.93F
AINSWORTH      MOCLDY    75  62  62 SW6       29.95R
BROKEN BOW     CLOUDY    74  62  66 CALM      29.95R
O`NEILL        CLEAR     76  61  60 CALM      29.91S
ORD            MOCLDY    73  62  68 SE3       29.91S
$$

NEZ041-046>049-061>064-073>077-083>087-020300-
SOUTH CENTRAL NEBRASKA

CITY           SKY/WX    TMP DP  RH WIND       PRES   REMARKS
GRAND ISLAND   CLOUDY    74  69  85 SE3       29.92F
HASTINGS       MOCLDY    79  68  69 SE7       29.92S
HEBRON         PTCLDY    77  68  75 SE3       29.91S
HOLDREGE       PTCLDY    75  66  74 S6        29.94S
KEARNEY *      MOCLDY    75  64  69 S3        29.93S
YORK           CLOUDY    75  70  83 SE5       29.91F
$$

NEZ011>018-030>034-042>045-020300-
NORTHEAST NEBRASKA

CITY           SKY/WX    TMP DP  RH WIND       PRES   REMARKS
NORFOLK        CLEAR     72  64  76 S6        29.90S
ALBION         CLEAR     73  62  70 SE3       29.91S
BLAIR          CLEAR     75  68  77 CALM      29.90F
COLUMBUS *     PTCLDY    72  64  78 S3        29.90S
FREMONT        CLEAR     77  66  69 CALM      29.90S
TEKAMAH        CLEAR     74  71  91 SE5       29.88F
WAYNE          CLEAR     71  67  89 S6        29.90S
$$

NEZ050>053-065>068-078-088>093-020300-
SOUTHEAST NEBRASKA

CITY           SKY/WX    TMP DP  RH WIND       PRES   REMARKS
LINCOLN        MOCLDY    79  64  60 S6        29.90F
OMAHA EPPLEY   PTCLDY    79  71  76 S8        29.89S
BEATRICE       MOCLDY    80  73  79 CALM      29.90F
FALLS CITY     PTCLDY    78  76  93 E6        29.90S
NEBRASKA CITY  CLEAR     78  67  69 SE5       29.91F
PLATTSMOUTH    CLEAR     77  72  85 SE6       29.91S
$$

NEZ044-045-051>053-067-020300-
OMAHA AREA

CITY           SKY/WX    TMP DP  RH WIND       PRES   REMARKS
OMAHA EPPLEY   PTCLDY    79  71  76 S8        29.89S
BLAIR          CLEAR     75  68  77 CALM      29.90F
FREMONT        CLEAR     77  66  69 CALM      29.90S
MILLARD        CLEAR     78  72  80 SE3       29.89F
PLATTSMOUTH    CLEAR     77  72  85 SE6       29.91S
WAHOO          FAIR      74  68  83 S3        29.90S
$$



USA.gov is the U.S. government's official web portal to all federal, state and local government web resources and services.